SCP
0 0 0 0 0 0 0 0 0 0 0 0 0 0 0 0 0 0 0 0 0 0 0 0 0 0 0 0 0 0 0 0 0 0 0 0 0 0 0 0 0 0 0
0 0 0 0 0 0 0 0 0 0 0 0 0 0 0 0 0 0 0 0 0 0 0 0 0 0 0 0 0 0 0 0 0 0 0 0 0 0 0 0 0 0 0
0 0 0 0 0 0 0 0 0 0 0 0 0 0 0 0 0 0 0 0 0 0 0 0 0 0 0 0 0 0 0 0 0 0 0 0 0 0 0 0 0 0 0
0 0 0 0 0 0 0 0 0 0 0 0 0 0 0 0 0 0 0 0 0 0 0 0 0 0 0 0 0 0 0 0 0 0 0 0 0 0 0 0 0 0 0
0 0 0 0 0 0 0 0 0 0 0 0 0 0 0 0 0 0 0 0 0 0 0 0 0 0 0 0 0 0 0 0 0 0 0 0 0 0 0 0 0 0 0
0 0 0 0 0 0 0 0 0 0 0 0 0 0 0 0 0 0 0 0 0 0 0 0 0 0 0 0 0 0 0 0 0 0 0 0 0 0 0 0 0 0 0
0 0 0 0 0 0 0 0 0 0 0 0 0 0 0 0 0 0 0 0 0 0 0 0 0 0 0 0 0 0 0 0 0 0 0 0 0 0 0 0 0 0 0
0 0 0 0 0 0 0 0 0 0 0 0 0 0 0 0 0 0 0 0 0 0 0 0 0 0 0 0 0 0 0 0 0 0 0 0 0 0 0 0 0 0 0
0 0 0 0 0 0 0 0 0 0 0 0 0 0 0 0 0 0 0 0 0 0 0 0 0 0 0 0 0 0 0 0 0 0 0 0 0 0 0 0 0 0 0
-0 -0 -0 -0 -0 0 0 0 0 0 0 0 0 0 0 0 0 0 0 0 0 0 0 0 0 0 0 0 0 0 0 0 0 0 0 0 0 0 0 0 0 0 0
-0 -0 -0 0 0 0 0 0 0 0 0 0 0 0 0 0 0 0 0 0 0 0 0 0 0 0 0 0 0 0 0 0 0 0 0 0 0 0 0 0 0 0 0
0 -0 -0 0 0 0 0 0 0 0 0 0 0 0 0 0 0 0 0 0 0 0 0 0 0 0 0 0 0 0 0 0 0 0 0 0 0 0 0 0 0 0 0
0 0 0 0 0 0 0 0 0 0 0 0 0 0 0 0 0 0 0 0 0 0 0 0 0 0 0 0 0 0 0 0 0 0 0 0 0 0 0 0 0 0 0
0 0 0 0 0 0 0 0 0 0 0 0 0 0 0 0 0 0 0 0 0 0 0 0 0 0 0 0 0 0 0 0 0 0 0 0 0 0 0 0 0 0 0
0 0 0 0 0 0 0 0 0 0 0 0 0 0 0 0 0 0 0 0 0 0 0 0 0 0 0 0 0 0 0 0 0 0 0 0 0 0 0 0 0 0 0
0 0 0 0 0 0 0 0 0 0 0 0 0 0 0 0 0 0 0 0 0 0 0 0 0 0 0 0 0 0 0 0 0 0 0 0 0 0 0 0 0 0 0
0 0 0 0 0 0 0 0 0 0 0 0 0 0 0 0 0 0 0 0 0 0 0 0 0 0 0 0 0 0 0 0 0 0 0 0 0 0 0 0 0 0 0
0 0 0 0 0 0 0 0 0 0 0 0 0 0 0 0 0 0 0 0 0 0 0 0 0 0 0 0 0 0 0 0 0 0 0 0 0 0 0 0 0 0 0
0 0 0 0 0 0 0 0 0 0 0 0 0 0 0 0 0 0 0 0 0 0 0 0 0 0 0 0 0 0 0 0 0 0 0 0 0 0 0 0 0 0 0
0 0 0 0 0 0 0 0 0 0 0 0 0 0 0 0 0 0 0 0 0 0 0 0 0 0 0 0 0 0 0 0 0 0 0 0 0 0 0 0 0 0 0
0 0 0 0 0 0 0 0 0 0 0 0 0 0 0 0 0 0 0 0 0 0 0 0 0 0 0 0 0 0 0 0 0 0 0 0 0 0 0 0 0 0 0
0 0 0 0 0 0 0 0 0 0 0 0 0 0 0 0 0 0 0 0 0 0 0 0 0 0 0 0 0 0 0 0 0 0 0 0 0 0 0 0 0 0 0
0 0 0 0 0 0 0 0 0 0 0 0 0 0 0 0 0 0 0 0 0 0 0 0 0 0 0 0 0 0 0 0 0 0 0 0 0 0 0 0 0 0 0
0 0 0 0 0 0 0 0 0 0 0 0 0 0 0 0 0 0 0 0 0 0 0 0 0 0 0 0 0 0 0 0 0 0 0 0 0 0 0 0 0 0 0
0 0 0 0 0 0 0 0 0 0 0 0 0 0 0 0 0 0 0 0 0 0 0 0 0 0 0 0 0 0 0 0 0 0 0 0 0 0 0 0 -0 -0 0
0 0 0 0 0 0 0 0 0 0 0 0 0 0 0 0 0 0 0 0 0 0 0 0 0 0 0 0 0 0 0 0 0 0 0 0 0 0 0 0 0 -0 0
Wind_Speed_500mb
13 12 11 12 14 15 15 14 15 14 16 19 21 25 26 29 32 32 30 28 28 29 30 32 34 36 38 39 40 42 45 47 53 56 56 53 58 56 55 54 52 47 42
22 20 17 16 16 17 18 19 17 15 15 18 23 27 27 26 25 26 25 25 26 27 28 30 33 36 38 40 42 43 45 47 51 55 54 51 50 50 53 52 50 47 42
24 23 23 21 20 19 19 19 19 19 19 20 23 26 27 27 29 28 28 28 28 29 30 32 35 37 38 39 41 42 43 45 48 51 52 49 50 49 49 47 46 45 42
20 19 22 25 25 25 25 24 24 24 24 25 26 28 29 31 32 31 31 31 32 32 33 36 38 40 40 40 39 40 41 42 45 48 50 50 49 47 48 48 45 43 40
16 15 17 23 26 28 28 28 29 30 32 33 33 34 36 36 37 36 36 36 37 38 41 43 44 45 44 43 42 42 43 44 45 47 48 48 46 45 44 46 48 45 42
12 17 21 23 25 27 29 30 32 33 34 37 41 42 43 42 42 44 45 45 46 47 49 50 50 50 50 50 49 46 45 45 44 46 45 43 44 44 43 46 49 52 58
16 18 20 22 23 26 29 32 34 36 40 43 44 47 52 52 51 52 54 56 56 57 56 55 56 55 54 54 53 51 49 47 44 43 41 40 43 45 49 49 51 54 58
21 24 27 29 29 29 30 33 36 39 41 42 44 49 55 55 57 61 61 65 65 64 62 60 60 58 56 56 54 52 48 45 44 44 44 45 46 48 48 51 54 59 62
28 31 36 41 43 44 43 41 41 43 45 50 51 51 53 53 52 56 61 67 70 68 65 64 61 59 55 55 55 51 49 45 45 46 49 52 53 52 50 52 52 56 66
40 44 48 51 50 49 49 47 47 49 52 53 54 56 57 58 54 54 56 62 66 64 63 62 59 57 54 53 53 50 50 45 46 47 49 52 53 51 50 48 50 51 56
52 55 58 59 59 57 56 51 48 48 51 53 55 57 60 63 61 57 54 54 55 54 53 53 52 52 51 50 51 48 48 50 49 52 53 56 55 51 48 48 47 48 51
53 56 56 58 57 56 56 56 52 49 47 46 47 47 50 54 57 56 52 50 50 48 45 45 45 47 46 45 45 46 49 50 48 50 50 49 50 51 48 47 45 44 41
50 53 55 52 50 50 51 52 52 53 50 45 42 42 42 44 45 49 47 37 35 35 36 40 40 40 39 37 38 42 43 43 46 44 42 45 46 47 46 44 36 36 32
50 51 50 48 45 45 48 51 52 52 50 49 45 40 39 37 36 33 33 31 25 26 27 29 30 30 33 37 38 41 40 37 37 39 41 40 38 33 32 35 34 34 36
55 55 53 51 47 44 43 45 45 46 46 42 40 36 33 32 30 26 22 26 24 24 26 29 33 35 37 34 32 31 30 31 33 32 30 29 28 26 28 30 32 35 37
59 54 52 51 48 43 39 39 40 39 38 35 32 30 30 29 28 27 28 28 24 24 28 25 27 27 25 23 23 25 24 21 20 19 19 21 22 23 25 29 31 32 35
60 57 52 48 44 41 37 35 34 35 33 29 27 27 27 25 24 22 25 25 27 26 22 18 18 19 17 16 17 16 12 11 11 13 15 18 22 25 24 25 26 28 30
57 52 48 44 41 38 34 31 30 29 29 28 26 25 26 26 23 22 19 19 21 20 16 13 11 10 10 8 6 7 6 9 12 15 16 18 20 22 23 25 27 29 32
49 47 44 41 39 35 35 33 29 25 24 24 23 25 29 24 23 22 19 17 13 10 6 4 3 4 4 5 8 8 10 11 12 14 17 19 19 20 22 26 28 29 33
45 44 44 41 39 35 33 31 31 29 30 30 31 29 29 27 24 20 16 10 7 3 5 7 9 10 11 11 12 14 17 19 20 20 19 21 22 22 22 23 26 27 28
45 43 42 38 37 36 35 33 31 32 31 29 27 27 23 19 16 12 8 3 3 7 10 13 14 16 16 15 15 15 16 16 17 18 19 19 18 19 21 23 25 27 27
42 39 37 36 35 36 35 34 32 30 27 24 22 19 14 9 6 3 3 7 10 14 16 17 17 16 14 13 13 14 16 18 19 18 17 17 18 19 20 21 23 22 23
36 34 34 31 32 33 32 30 27 24 22 20 18 15 8 4 7 11 14 17 18 18 16 14 14 14 13 13 13 14 15 15 13 14 16 17 17 19 20 22 23 23 24
31 30 29 28 27 26 26 25 23 21 19 18 16 12 10 14 18 20 20 19 18 18 17 16 15 13 11 10 11 12 13 13 14 17 18 19 20 22 23 23 24 26 26
21 20 19 19 20 20 18 17 16 17 17 16 15 16 20 23 23 23 22 20 19 18 16 14 12 10 9 7 9 12 14 16 18 19 18 18 20 21 22 23 24 27 26
11 9 8 8 10 10 11 13 14 16 18 21 25 27 27 27 25 23 21 18 17 14 12 10 8 7 7 8 9 11 14 16 17 18 20 22 22 21 21 24 26 26 28
Wind_Direction_500mb
40 27 21 8 357 351 340 327 313 296 276 263 256 268 260 255 258 258 262 261 261 263 266 271 276 280 282 284 284 282 280 279 276 285 288 292 293 296 299 300 303 303 303
25 15 2 351 339 337 333 328 319 304 283 269 266 267 269 258 260 262 264 262 265 270 275 280 283 286 289 290 290 288 286 283 282 286 289 292 293 296 298 301 301 302 304
360 357 355 344 338 333 318 310 308 305 290 271 262 264 267 268 265 262 261 263 266 270 274 279 282 285 287 287 287 287 287 285 285 286 291 295 297 298 298 299 300 302 306
348 336 326 327 328 325 323 315 304 299 297 292 285 276 271 265 263 262 264 266 270 273 277 281 283 284 284 285 286 286 285 286 287 288 290 294 298 301 301 302 300 299 301
336 340 331 322 321 320 315 309 312 303 290 285 280 276 274 271 269 268 268 269 272 276 279 282 284 285 286 286 286 286 287 287 287 287 290 295 298 299 297 299 301 302 305
310 322 320 316 315 313 310 307 302 297 296 288 279 276 273 273 272 271 271 272 273 275 277 280 283 284 285 284 285 285 284 284 285 287 288 290 293 296 300 304 308 314 313
324 328 331 328 322 314 308 304 302 300 295 292 289 281 273 270 270 271 272 273 273 274 275 278 280 281 280 280 280 282 283 284 283 281 285 287 291 300 304 305 306 308 306
340 341 339 337 335 330 322 314 307 302 301 299 296 292 287 282 276 272 271 272 272 274 276 278 278 279 279 277 276 277 277 277 278 282 286 288 291 295 296 300 301 302 302
333 333 332 328 325 323 321 319 317 311 305 301 299 296 293 292 288 281 276 276 276 276 276 276 277 277 275 273 274 275 275 273 274 278 281 284 289 292 296 297 301 305 308
324 324 324 322 319 316 315 313 310 307 307 305 304 301 297 293 289 284 279 277 277 277 277 277 277 275 273 273 274 273 272 272 271 272 276 281 287 294 299 301 302 303 305
315 313 312 311 309 306 305 302 301 301 301 301 300 300 299 297 295 289 283 278 276 275 273 273 272 271 271 271 272 271 269 269 270 278 285 291 296 301 301 302 299 297 296
308 306 306 306 303 302 300 297 294 292 292 297 300 302 303 301 297 292 287 282 277 274 272 271 271 273 275 274 273 272 274 283 289 289 292 295 297 300 305 303 303 300 301
306 306 306 306 304 305 305 302 301 301 299 296 297 300 304 303 300 296 290 283 281 281 281 281 278 276 274 271 271 274 278 280 283 285 291 298 303 304 306 306 310 307 309
300 300 300 299 297 298 300 300 299 298 299 299 300 300 301 306 303 297 291 286 283 286 283 283 283 277 276 278 277 277 277 282 291 297 298 298 300 308 310 313 319 319 319
287 290 293 293 294 296 297 299 300 300 300 302 304 305 305 301 298 295 294 293 293 290 290 287 284 283 281 279 280 280 287 295 299 303 307 313 316 320 321 323 327 328 328
286 289 292 291 291 292 297 299 299 298 299 305 309 310 306 298 299 302 300 297 297 296 293 292 294 291 285 286 287 291 297 307 312 315 322 325 325 329 331 332 333 333 330
288 290 291 291 290 290 293 293 292 290 293 297 299 298 295 295 294 300 299 297 293 287 285 280 277 278 280 286 293 296 310 320 331 330 339 340 336 337 338 340 342 341 339
287 287 287 287 287 287 286 284 284 286 289 289 292 295 288 294 295 287 285 284 285 281 279 283 281 289 300 315 320 324 358 10 7 356 354 352 348 348 351 351 349 346 344
279 280 280 280 281 281 281 279 278 277 276 283 293 286 289 295 291 296 300 296 285 280 286 300 338 15 26 44 56 56 49 41 31 23 16 8 1 357 351 345 347 346 345
276 276 277 279 279 278 276 274 275 275 274 279 283 283 284 287 293 301 300 300 312 356 64 75 81 83 82 72 68 59 46 37 26 17 7 359 352 351 352 348 350 357 357
278 279 279 277 273 270 269 268 268 271 271 276 277 279 285 283 288 291 296 321 66 87 90 94 93 87 79 68 55 49 44 38 27 18 10 1 353 347 351 351 353 356 357
276 275 274 272 268 263 263 265 268 269 270 270 271 274 283 283 269 248 158 126 114 107 105 103 96 88 80 70 57 47 39 28 18 9 5 3 360 2 3 1 2 1 2
274 274 271 267 263 261 261 262 262 262 258 254 251 252 256 213 164 145 135 128 123 116 109 108 104 93 80 68 55 44 34 25 16 16 18 16 12 13 14 12 8 5 5
277 273 269 264 260 255 252 252 250 245 239 231 226 214 180 158 147 140 134 132 131 129 124 116 106 94 79 64 55 44 35 28 30 29 24 20 19 20 17 14 15 18 16
285 280 271 258 248 242 239 235 232 222 213 204 191 170 155 146 144 142 140 139 131 119 111 104 100 97 90 68 50 43 35 32 31 28 23 24 25 22 21 22 24 24 24
305 291 264 240 225 217 208 202 197 188 178 167 158 151 149 147 143 139 134 127 122 120 118 115 111 103 91 76 60 44 38 36 35 30 30 30 24 23 26 29 30 27 26
Wind_Speed_850mb
13 12 11 12 14 15 15 14 15 14 16 19 21 25 26 29 32 32 30 28 28 29 30 32 34 36 38 39 40 42 45 47 53 56 56 53 58 56 55 54 52 47 42
22 20 17 16 16 17 18 19 17 15 15 18 23 27 27 26 25 26 25 25 26 27 28 30 33 36 38 40 42 43 45 47 51 55 54 51 50 50 53 52 50 47 42
24 23 23 21 20 19 19 19 19 19 19 20 23 26 27 27 29 28 28 28 28 29 30 32 35 37 38 39 41 42 43 45 48 51 52 49 50 49 49 47 46 45 42
20 19 22 25 25 25 25 24 24 24 24 25 26 28 29 31 32 31 31 31 32 32 33 36 38 40 40 40 39 40 41 42 45 48 50 50 49 47 48 48 45 43 40
16 15 17 23 26 28 28 28 29 30 32 33 33 34 36 36 37 36 36 36 37 38 41 43 44 45 44 43 42 42 43 44 45 47 48 48 46 45 44 46 48 45 42
12 17 21 23 25 27 29 30 32 33 34 37 41 42 43 42 42 44 45 45 46 47 49 50 50 50 50 50 49 46 45 45 44 46 45 43 44 44 43 46 49 52 58
16 18 20 22 23 26 29 32 34 36 40 43 44 47 52 52 51 52 54 56 56 57 56 55 56 55 54 54 53 51 49 47 44 43 41 40 43 45 49 49 51 54 58
21 24 27 29 29 29 30 33 36 39 41 42 44 49 55 55 57 61 61 65 65 64 62 60 60 58 56 56 54 52 48 45 44 44 44 45 46 48 48 51 54 59 62
28 31 36 41 43 44 43 41 41 43 45 50 51 51 53 53 52 56 61 67 70 68 65 64 61 59 55 55 55 51 49 45 45 46 49 52 53 52 50 52 52 56 66
40 44 48 51 50 49 49 47 47 49 52 53 54 56 57 58 54 54 56 62 66 64 63 62 59 57 54 53 53 50 50 45 46 47 49 52 53 51 50 48 50 51 56
52 55 58 59 59 57 56 51 48 48 51 53 55 57 60 63 61 57 54 54 55 54 53 53 52 52 51 50 51 48 48 50 49 52 53 56 55 51 48 48 47 48 51
53 56 56 58 57 56 56 56 52 49 47 46 47 47 50 54 57 56 52 50 50 48 45 45 45 47 46 45 45 46 49 50 48 50 50 49 50 51 48 47 45 44 41
50 53 55 52 50 50 51 52 52 53 50 45 42 42 42 44 45 49 47 37 35 35 36 40 40 40 39 37 38 42 43 43 46 44 42 45 46 47 46 44 36 36 32
50 51 50 48 45 45 48 51 52 52 50 49 45 40 39 37 36 33 33 31 25 26 27 29 30 30 33 37 38 41 40 37 37 39 41 40 38 33 32 35 34 34 36
55 55 53 51 47 44 43 45 45 46 46 42 40 36 33 32 30 26 22 26 24 24 26 29 33 35 37 34 32 31 30 31 33 32 30 29 28 26 28 30 32 35 37
59 54 52 51 48 43 39 39 40 39 38 35 32 30 30 29 28 27 28 28 24 24 28 25 27 27 25 23 23 25 24 21 20 19 19 21 22 23 25 29 31 32 35
60 57 52 48 44 41 37 35 34 35 33 29 27 27 27 25 24 22 25 25 27 26 22 18 18 19 17 16 17 16 12 11 11 13 15 18 22 25 24 25 26 28 30
57 52 48 44 41 38 34 31 30 29 29 28 26 25 26 26 23 22 19 19 21 20 16 13 11 10 10 8 6 7 6 9 12 15 16 18 20 22 23 25 27 29 32
49 47 44 41 39 35 35 33 29 25 24 24 23 25 29 24 23 22 19 17 13 10 6 4 3 4 4 5 8 8 10 11 12 14 17 19 19 20 22 26 28 29 33
45 44 44 41 39 35 33 31 31 29 30 30 31 29 29 27 24 20 16 10 7 3 5 7 9 10 11 11 12 14 17 19 20 20 19 21 22 22 22 23 26 27 28
45 43 42 38 37 36 35 33 31 32 31 29 27 27 23 19 16 12 8 3 3 7 10 13 14 16 16 15 15 15 16 16 17 18 19 19 18 19 21 23 25 27 27
42 39 37 36 35 36 35 34 32 30 27 24 22 19 14 9 6 3 3 7 10 14 16 17 17 16 14 13 13 14 16 18 19 18 17 17 18 19 20 21 23 22 23
36 34 34 31 32 33 32 30 27 24 22 20 18 15 8 4 7 11 14 17 18 18 16 14 14 14 13 13 13 14 15 15 13 14 16 17 17 19 20 22 23 23 24
31 30 29 28 27 26 26 25 23 21 19 18 16 12 10 14 18 20 20 19 18 18 17 16 15 13 11 10 11 12 13 13 14 17 18 19 20 22 23 23 24 26 26
21 20 19 19 20 20 18 17 16 17 17 16 15 16 20 23 23 23 22 20 19 18 16 14 12 10 9 7 9 12 14 16 18 19 18 18 20 21 22 23 24 27 26
11 9 8 8 10 10 11 13 14 16 18 21 25 27 27 27 25 23 21 18 17 14 12 10 8 7 7 8 9 11 14 16 17 18 20 22 22 21 21 24 26 26 28
Wind_Direction_850mb
40 27 21 8 357 351 340 327 313 296 276 263 256 268 260 255 258 258 262 261 261 263 266 271 276 280 282 284 284 282 280 279 276 285 288 292 293 296 299 300 303 303 303
25 15 2 351 339 337 333 328 319 304 283 269 266 267 269 258 260 262 264 262 265 270 275 280 283 286 289 290 290 288 286 283 282 286 289 292 293 296 298 301 301 302 304
360 357 355 344 338 333 318 310 308 305 290 271 262 264 267 268 265 262 261 263 266 270 274 279 282 285 287 287 287 287 287 285 285 286 291 295 297 298 298 299 300 302 306
348 336 326 327 328 325 323 315 304 299 297 292 285 276 271 265 263 262 264 266 270 273 277 281 283 284 284 285 286 286 285 286 287 288 290 294 298 301 301 302 300 299 301
336 340 331 322 321 320 315 309 312 303 290 285 280 276 274 271 269 268 268 269 272 276 279 282 284 285 286 286 286 286 287 287 287 287 290 295 298 299 297 299 301 302 305
310 322 320 316 315 313 310 307 302 297 296 288 279 276 273 273 272 271 271 272 273 275 277 280 283 284 285 284 285 285 284 284 285 287 288 290 293 296 300 304 308 314 313
324 328 331 328 322 314 308 304 302 300 295 292 289 281 273 270 270 271 272 273 273 274 275 278 280 281 280 280 280 282 283 284 283 281 285 287 291 300 304 305 306 308 306
340 341 339 337 335 330 322 314 307 302 301 299 296 292 287 282 276 272 271 272 272 274 276 278 278 279 279 277 276 277 277 277 278 282 286 288 291 295 296 300 301 302 302
333 333 332 328 325 323 321 319 317 311 305 301 299 296 293 292 288 281 276 276 276 276 276 276 277 277 275 273 274 275 275 273 274 278 281 284 289 292 296 297 301 305 308
324 324 324 322 319 316 315 313 310 307 307 305 304 301 297 293 289 284 279 277 277 277 277 277 277 275 273 273 274 273 272 272 271 272 276 281 287 294 299 301 302 303 305
315 313 312 311 309 306 305 302 301 301 301 301 300 300 299 297 295 289 283 278 276 275 273 273 272 271 271 271 272 271 269 269 270 278 285 291 296 301 301 302 299 297 296
308 306 306 306 303 302 300 297 294 292 292 297 300 302 303 301 297 292 287 282 277 274 272 271 271 273 275 274 273 272 274 283 289 289 292 295 297 300 305 303 303 300 301
306 306 306 306 304 305 305 302 301 301 299 296 297 300 304 303 300 296 290 283 281 281 281 281 278 276 274 271 271 274 278 280 283 285 291 298 303 304 306 306 310 307 309
300 300 300 299 297 298 300 300 299 298 299 299 300 300 301 306 303 297 291 286 283 286 283 283 283 277 276 278 277 277 277 282 291 297 298 298 300 308 310 313 319 319 319
287 290 293 293 294 296 297 299 300 300 300 302 304 305 305 301 298 295 294 293 293 290 290 287 284 283 281 279 280 280 287 295 299 303 307 313 316 320 321 323 327 328 328
286 289 292 291 291 292 297 299 299 298 299 305 309 310 306 298 299 302 300 297 297 296 293 292 294 291 285 286 287 291 297 307 312 315 322 325 325 329 331 332 333 333 330
288 290 291 291 290 290 293 293 292 290 293 297 299 298 295 295 294 300 299 297 293 287 285 280 277 278 280 286 293 296 310 320 331 330 339 340 336 337 338 340 342 341 339
287 287 287 287 287 287 286 284 284 286 289 289 292 295 288 294 295 287 285 284 285 281 279 283 281 289 300 315 320 324 358 10 7 356 354 352 348 348 351 351 349 346 344
279 280 280 280 281 281 281 279 278 277 276 283 293 286 289 295 291 296 300 296 285 280 286 300 338 15 26 44 56 56 49 41 31 23 16 8 1 357 351 345 347 346 345
276 276 277 279 279 278 276 274 275 275 274 279 283 283 284 287 293 301 300 300 312 356 64 75 81 83 82 72 68 59 46 37 26 17 7 359 352 351 352 348 350 357 357
278 279 279 277 273 270 269 268 268 271 271 276 277 279 285 283 288 291 296 321 66 87 90 94 93 87 79 68 55 49 44 38 27 18 10 1 353 347 351 351 353 356 357
276 275 274 272 268 263 263 265 268 269 270 270 271 274 283 283 269 248 158 126 114 107 105 103 96 88 80 70 57 47 39 28 18 9 5 3 360 2 3 1 2 1 2
274 274 271 267 263 261 261 262 262 262 258 254 251 252 256 213 164 145 135 128 123 116 109 108 104 93 80 68 55 44 34 25 16 16 18 16 12 13 14 12 8 5 5
277 273 269 264 260 255 252 252 250 245 239 231 226 214 180 158 147 140 134 132 131 129 124 116 106 94 79 64 55 44 35 28 30 29 24 20 19 20 17 14 15 18 16
285 280 271 258 248 242 239 235 232 222 213 204 191 170 155 146 144 142 140 139 131 119 111 104 100 97 90 68 50 43 35 32 31 28 23 24 25 22 21 22 24 24 24
305 291 264 240 225 217 208 202 197 188 178 167 158 151 149 147 143 139 134 127 122 120 118 115 111 103 91 76 60 44 38 36 35 30 30 30 24 23 26 29 30 27 26